Meteo Giornale » Osservazioni meteo Italia » Cagliari-Elmas

ore: 08:50 - Osservazioni Meteo Cagliari-Elmas
Lat. 39° 15' N Lon. 9° 4' E Alt. 4 metri s.l.m.

foschia Europe/Rome

13 °C

Foschia

Temp. 24 Ore

12 °C

23 °C

Nord-Ovest

7.4 Km/h

Dew point 13 °C

Umidità 100 %

Visibilità  2 Km

Il sole sorge alle ore 07:35

Il sole tramonta alle ore 18:41

Data e Ora Cielo e Fenomeni T °C DP °C Um. % Pres. hPa Vis. km Vento km/h
Oggi h: 08:50 foschia Foschia 13 13 100 1020 2 NO 7.4
Oggi h: 08:20 foschia Foschia 12 11 93 1020 5 N 5.5
Oggi h: 07:50 nebbia Nebbia 12 11 93 1020 0.4 N/NO 9.3
Oggi h: 07:20 foschia Foschia 12 11 93 1020 5 N/NO 9.3
Oggi h: 06:50 sereno Sereno 12 11 93 1020 9 N/NO 11.1
Oggi h: 06:20 sereno Sereno 12 11 93 1020 9 N/NO 7.4
Oggi h: 05:50 nebbia Banco di Nebbia 12 12 100 1020 9 N/NO 11.1
Oggi h: 05:20 nebbia Banco di Nebbia 13 13 100 1020 9 NO 11.1
Oggi h: 04:50 sereno Sereno 13 12 93 1020 10 NO 11.1
Oggi h: 04:20 sereno Sereno 14 13 93 1021 10 NO 9.3
Oggi h: 03:50 sereno Sereno 13 12 93 1021 10 N/NO 9.3
Oggi h: 03:20 sereno Sereno 14 13 93 1021 10 NO 9.3
Oggi h: 02:50 poco_nuvoloso Poco Nuvoloso 14 13 93 1021 10 N 5.5
Oggi h: 02:20 poco_nuvoloso Poco Nuvoloso 15 14 93 1021 10 N 3.7
Oggi h: 01:50 poco_nuvoloso Poco Nuvoloso 15 14 93 1022 10 N/NO 7.4
Oggi h: 01:20 poco_nuvoloso Poco Nuvoloso 17 15 88 1022 10 N/NO 7.4
Oggi h: 00:50 poco_nuvoloso Poco Nuvoloso 17 15 88 1022 10 N 5.5
Oggi h: 00:20 poco_nuvoloso Poco Nuvoloso 18 15 82 1022 10 E/NE 7.4
Ieri h: 23:50 poco_nuvoloso Poco Nuvoloso 19 17 88 1022 10 E 7.4
Ieri h: 23:20 poco_nuvoloso Poco Nuvoloso 20 17 82 1022 10 SE 11.1
Ieri h: 22:50 poco_nuvoloso Poco Nuvoloso 20 17 82 1022 10 S/SE 9.3
Ieri h: 22:20 poco_nuvoloso Poco Nuvoloso 20 17 82 1022 10 S 9.3
Ieri h: 21:50 poco_nuvoloso Poco Nuvoloso 20 17 82 1022 10 S 7.4
Ieri h: 21:20 poco_nuvoloso Poco Nuvoloso 20 17 82 1022 10 S 9.3
Ieri h: 20:50 sereno Sereno 20 17 82 1022 10 S 9.3
Ieri h: 20:20 sereno Sereno 20 17 82 1022 10 S/SE 11.1
Ieri h: 19:50 sereno Sereno 20 17 82 1022 10 S/SE 13
Ieri h: 19:20 sereno Sereno 20 17 82 1022 10 S/SE 13
Ieri h: 18:50 sereno Sereno 21 17 77 1022 10 S/SE 14.8
Ieri h: 18:20 sereno Sereno 21 17 77 1022 10 S/SE 16.7
Ieri h: 17:50 sereno Sereno 22 17 73 1022 10 S/SE 20.3
Ieri h: 17:20 sereno Sereno 22 17 73 1022 10 S/SE 18.5
Ieri h: 16:50 sereno Sereno 23 17 68 1022 10 S/SE 16.7
Ieri h: 16:20 sereno Sereno 23 17 68 1022 10 S/SE 20.3
Ieri h: 15:50 sereno Sereno 23 17 68 1022 10 S/SE 16.7
Ieri h: 15:20 sereno Sereno 23 17 68 1023 10 S/SE 16.7
Ieri h: 14:50 sereno Sereno 23 17 68 1023 10 S/SE 14.8
Ieri h: 14:20 sereno Sereno 23 17 68 1024 10 S/SE 16.7
Ieri h: 13:50 sereno Sereno 23 16 64 1024 10 S/SE 14.8
Ieri h: 13:20 sereno Sereno 23 16 64 1024 10 S/SE 13
Ieri h: 12:50 sereno Sereno 23 16 64 1025 10 S/SE 13
Ieri h: 12:20 sereno Sereno 23 16 64 1025 10 S/SE 13
Ieri h: 11:50 sereno Sereno 23 16 64 1025 10 SE 13
Ieri h: 11:20 sereno Sereno 22 15 64 1025 10 N 5.5
Ieri h: 10:50 sereno Sereno 20 14 68 1025 10 N 3.7
Ieri h: 10:20 sereno Sereno 17 13 77 1025 10 N 5.5
Ieri h: 09:50 sereno Sereno 16 12 77 1026 10 NO 7.4